Time,TemperatureF,DewpointF,PressureIn,WindDirection,WindDirectionDegrees,WindSpeedMPH,WindSpeedGustMPH,Humidity,HourlyPrecipIn,Conditions,Clouds,dailyrainin,SoftwareType,DateUTC
2013-10-24 00:06:00,47.5,35.4,30.37,ESE,112,0.0,0.0,62,0.00,,,0.00,WUHU21636XXSP,2013-10-24 05:06:00,
2013-10-24 00:16:00,47.3,35.2,30.38,ESE,112,0.0,0.0,62,0.00,,,0.00,WUHU21636XXSP,2013-10-24 05:16:00,
2013-10-24 00:26:00,46.9,34.9,30.38,ESE,112,0.0,0.0,63,0.00,,,0.00,WUHU21636XXSP,2013-10-24 05:26:00,
2013-10-24 00:36:00,46.6,34.9,30.38,ESE,112,0.0,0.0,64,0.00,,,0.00,WUHU21636XXSP,2013-10-24 05:36:00,
2013-10-24 00:46:00,46.2,34.5,30.39,ESE,112,0.0,0.0,64,0.00,,,0.00,WUHU21636XXSP,2013-10-24 05:46:00,
2013-10-24 00:56:00,46.0,34.9,30.39,ESE,112,0.0,0.0,65,0.00,,,0.00,WUHU21636XXSP,2013-10-24 05:56:00,
2013-10-24 01:06:00,46.0,34.9,30.39,ESE,112,0.0,0.0,65,0.00,,,0.00,WUHU21636XXSP,2013-10-24 06:06:00,
2013-10-24 01:16:00,46.0,34.9,30.40,ESE,112,0.0,0.0,65,0.00,,,0.00,WUHU21636XXSP,2013-10-24 06:16:00,
2013-10-24 01:26:00,45.7,34.5,30.40,ESE,112,0.0,0.0,65,0.00,,,0.00,WUHU21636XXSP,2013-10-24 06:26:00,
2013-10-24 01:36:00,45.1,34.0,30.40,ESE,112,0.0,0.0,65,0.00,,,0.00,WUHU21636XXSP,2013-10-24 06:36:00,
2013-10-24 01:46:00,45.0,34.2,30.40,ESE,112,0.0,0.0,66,0.00,,,0.00,WUHU21636XXSP,2013-10-24 06:46:00,
2013-10-24 01:56:00,44.8,34.3,30.41,ESE,112,0.0,0.0,67,0.00,,,0.00,WUHU21636XXSP,2013-10-24 06:56:00,
2013-10-24 02:06:00,44.8,34.3,30.41,ESE,112,0.0,0.0,67,0.00,,,0.00,WUHU21636XXSP,2013-10-24 07:06:00,
2013-10-24 02:16:00,44.4,34.0,30.41,ESE,112,0.0,0.0,67,0.00,,,0.00,WUHU21636XXSP,2013-10-24 07:16:00,
2013-10-24 02:26:00,44.4,34.0,30.41,ESE,112,0.0,0.0,68,0.00,,,0.00,WUHU21636XXSP,2013-10-24 07:26:00,
2013-10-24 02:36:00,44.2,34.2,30.41,ESE,112,0.0,0.0,68,0.00,,,0.00,WUHU21636XXSP,2013-10-24 07:36:00,
2013-10-24 02:46:00,44.2,34.2,30.41,ESE,112,0.0,0.0,68,0.00,,,0.00,WUHU21636XXSP,2013-10-24 07:46:00,
2013-10-24 02:56:00,43.7,33.8,30.42,ESE,112,0.0,0.0,68,0.00,,,0.00,WUHU21636XXSP,2013-10-24 07:56:00,
2013-10-24 03:06:00,43.7,33.8,30.42,ESE,112,0.0,0.0,68,0.00,,,0.00,WUHU21636XXSP,2013-10-24 08:06:00,
2013-10-24 03:16:00,42.6,33.1,30.42,ESE,112,0.0,0.0,69,0.00,,,0.00,WUHU21636XXSP,2013-10-24 08:16:00,
2013-10-24 03:26:00,42.4,32.5,30.42,ESE,112,0.0,0.0,69,0.00,,,0.00,WUHU21636XXSP,2013-10-24 08:26:00,
2013-10-24 03:36:00,42.6,33.1,30.41,ESE,112,0.0,0.0,69,0.00,,,0.00,WUHU21636XXSP,2013-10-24 08:36:00,
2013-10-24 03:46:00,42.6,33.1,30.41,ESE,112,0.0,0.0,70,0.00,,,0.00,WUHU21636XXSP,2013-10-24 08:46:00,
2013-10-24 03:56:00,42.4,33.4,30.42,ESE,112,0.0,0.0,70,0.00,,,0.00,WUHU21636XXSP,2013-10-24 08:56:00,
2013-10-24 04:06:00,41.9,32.4,30.42,ESE,112,0.0,0.0,69,0.00,,,0.00,WUHU21636XXSP,2013-10-24 09:06:00,
2013-10-24 04:16:00,40.8,31.8,30.42,ESE,112,0.0,0.0,70,0.00,,,0.00,WUHU21636XXSP,2013-10-24 09:16:00,
2013-10-24 04:26:00,40.6,31.8,30.42,ESE,112,0.0,0.0,71,0.00,,,0.00,WUHU21636XXSP,2013-10-24 09:26:00,
2013-10-24 04:36:00,40.3,31.5,30.42,ESE,112,0.0,0.0,72,0.00,,,0.00,WUHU21636XXSP,2013-10-24 09:36:00,
2013-10-24 04:46:00,39.9,31.5,30.43,ESE,112,0.0,0.0,72,0.00,,,0.00,WUHU21636XXSP,2013-10-24 09:46:00,
2013-10-24 04:56:00,39.9,31.5,30.43,ESE,112,0.0,0.0,73,0.00,,,0.00,WUHU21636XXSP,2013-10-24 09:56:00,
2013-10-24 05:06:00,40.3,32.2,30.43,ESE,112,0.0,0.0,73,0.00,,,0.00,WUHU21636XXSP,2013-10-24 10:06:00,
2013-10-24 05:16:00,40.6,32.9,30.43,ESE,112,0.0,0.0,74,0.00,,,0.00,WUHU21636XXSP,2013-10-24 10:16:00,
2013-10-24 05:27:00,40.6,32.9,30.43,ESE,112,0.0,0.0,74,0.00,,,0.00,WUHU21636XXSP,2013-10-24 10:27:00,
2013-10-24 05:37:00,40.8,33.1,30.43,ESE,112,0.0,0.0,74,0.00,,,0.00,WUHU21636XXSP,2013-10-24 10:37:00,
2013-10-24 05:47:00,40.8,33.1,30.44,ESE,112,0.0,0.0,75,0.00,,,0.00,WUHU21636XXSP,2013-10-24 10:47:00,
2013-10-24 05:57:00,41.2,33.8,30.43,ESE,112,0.0,0.0,75,0.00,,,0.00,WUHU21636XXSP,2013-10-24 10:57:00,
2013-10-24 06:07:00,41.4,34.0,30.43,ESE,112,0.0,0.0,75,0.00,,,0.00,WUHU21636XXSP,2013-10-24 11:07:00,
2013-10-24 06:17:00,41.2,33.8,30.43,ESE,112,0.0,0.0,75,0.00,,,0.00,WUHU21636XXSP,2013-10-24 11:17:00,
2013-10-24 06:27:00,41.4,34.0,30.43,ESE,112,0.0,0.0,75,0.00,,,0.00,WUHU21636XXSP,2013-10-24 11:27:00,
2013-10-24 06:37:00,41.2,33.1,30.44,ESE,112,0.0,0.0,73,0.00,,,0.00,WUHU21636XXSP,2013-10-24 11:37:00,
2013-10-24 06:47:00,41.2,33.1,30.44,ESE,112,0.0,0.0,73,0.00,,,0.00,WUHU21636XXSP,2013-10-24 11:47:00,
2013-10-24 06:57:00,40.6,32.5,30.45,ESE,112,0.0,0.0,73,0.00,,,0.00,WUHU21636XXSP,2013-10-24 11:57:00,
2013-10-24 07:07:00,40.3,32.2,30.45,ESE,112,0.0,0.0,73,0.00,,,0.00,WUHU21636XXSP,2013-10-24 12:07:00,
2013-10-24 07:17:00,40.1,32.0,30.45,ESE,112,0.0,0.0,73,0.00,,,0.00,WUHU21636XXSP,2013-10-24 12:17:00,
2013-10-24 07:27:00,39.9,31.8,30.45,ESE,112,0.0,0.0,74,0.00,,,0.00,WUHU21636XXSP,2013-10-24 12:27:00,
2013-10-24 07:37:00,39.9,32.2,30.45,ESE,112,0.0,0.0,74,0.00,,,0.00,WUHU21636XXSP,2013-10-24 12:37:00,
2013-10-24 07:47:00,39.9,32.2,30.45,ESE,112,0.0,0.0,74,0.00,,,0.00,WUHU21636XXSP,2013-10-24 12:47:00,
2013-10-24 07:57:00,39.9,32.2,30.46,ESE,112,0.0,0.0,74,0.00,,,0.00,WUHU21636XXSP,2013-10-24 12:57:00,
2013-10-24 08:07:00,39.7,32.4,30.46,ESE,112,0.0,0.0,75,0.00,,,0.00,WUHU21636XXSP,2013-10-24 13:07:00,
2013-10-24 08:17:00,39.7,32.4,30.47,ESE,112,0.0,0.0,75,0.00,,,0.00,WUHU21636XXSP,2013-10-24 13:17:00,
2013-10-24 08:27:00,39.4,32.4,30.47,ESE,112,0.0,0.0,76,0.00,,,0.00,WUHU21636XXSP,2013-10-24 13:27:00,
2013-10-24 08:37:00,39.0,32.7,30.47,ESE,112,0.0,0.0,78,0.00,,,0.00,WUHU21636XXSP,2013-10-24 13:37:00,
2013-10-24 08:47:00,39.0,32.7,30.48,ESE,112,0.0,0.0,78,0.00,,,0.00,WUHU21636XXSP,2013-10-24 13:47:00,
2013-10-24 08:57:00,39.4,33.1,30.48,ESE,112,0.0,0.0,78,0.00,,,0.00,WUHU21636XXSP,2013-10-24 13:57:00,
2013-10-24 09:07:00,39.7,33.3,30.49,ESE,112,0.0,0.0,78,0.00,,,0.00,WUHU21636XXSP,2013-10-24 14:07:00,
2013-10-24 09:17:00,39.7,33.3,30.49,ESE,112,0.0,0.0,78,0.00,,,0.00,WUHU21636XXSP,2013-10-24 14:17:00,
2013-10-24 09:27:00,40.3,33.8,30.50,ESE,112,0.0,0.0,78,0.00,,,0.00,WUHU21636XXSP,2013-10-24 14:27:00,
2013-10-24 09:37:00,40.6,34.2,30.50,ESE,112,0.0,0.0,78,0.00,,,0.00,WUHU21636XXSP,2013-10-24 14:37:00,
2013-10-24 09:47:00,40.8,34.3,30.50,ESE,112,0.0,0.0,78,0.00,,,0.00,WUHU21636XXSP,2013-10-24 14:47:00,
2013-10-24 09:57:00,41.2,35.1,30.51,ESE,112,0.0,0.0,79,0.00,,,0.00,WUHU21636XXSP,2013-10-24 14:57:00,
2013-10-24 10:07:00,41.4,35.2,30.51,SE,135,0.0,0.0,79,0.00,,,0.00,WUHU21636XXSP,2013-10-24 15:07:00,
2013-10-24 10:17:00,41.5,35.4,30.51,SE,135,0.0,0.0,79,0.00,,,0.00,WUHU21636XXSP,2013-10-24 15:17:00,
2013-10-24 10:27:00,41.9,35.8,30.50,SE,135,0.0,0.0,79,0.00,,,0.00,WUHU21636XXSP,2013-10-24 15:27:00,
2013-10-24 10:37:00,42.1,36.0,30.51,SSE,157,0.0,2.2,79,0.00,,,0.00,WUHU21636XXSP,2013-10-24 15:37:00,
2013-10-24 10:47:00,42.6,36.5,30.51,SSE,157,2.4,2.4,79,0.00,,,0.00,WUHU21636XXSP,2013-10-24 15:47:00,
2013-10-24 10:57:00,43.3,36.9,30.51,SSE,157,5.5,5.5,78,0.00,,,0.00,WUHU21636XXSP,2013-10-24 15:57:00,
2013-10-24 11:07:00,43.3,36.5,30.51,SSE,157,0.0,5.5,76,0.00,,,0.00,WUHU21636XXSP,2013-10-24 16:07:00,
2013-10-24 11:17:00,43.7,36.1,30.51,SSE,157,0.0,0.0,75,0.00,,,0.00,WUHU21636XXSP,2013-10-24 16:17:00,
2013-10-24 11:27:00,43.7,36.1,30.52,South,180,2.4,7.3,74,0.00,,,0.00,WUHU21636XXSP,2013-10-24 16:27:00,
2013-10-24 11:37:00,43.9,36.3,30.52,SE,135,0.0,5.1,75,0.00,,,0.00,WUHU21636XXSP,2013-10-24 16:37:00,
2013-10-24 11:47:00,44.2,36.7,30.51,SSW,202,0.0,0.0,75,0.00,,,0.00,WUHU21636XXSP,2013-10-24 16:47:00,
2013-10-24 11:57:00,44.2,36.7,30.51,South,180,0.0,2.4,75,0.00,,,0.00,WUHU21636XXSP,2013-10-24 16:57:00,
2013-10-24 12:07:00,44.4,36.9,30.51,SSW,202,1.7,3.3,75,0.00,,,0.00,WUHU21636XXSP,2013-10-24 17:07:00,
2013-10-24 12:17:00,45.0,37.4,30.51,South,180,0.0,1.7,75,0.00,,,0.00,WUHU21636XXSP,2013-10-24 17:17:00,
2013-10-24 12:27:00,45.1,37.2,30.51,South,180,0.2,3.8,74,0.00,,,0.00,WUHU21636XXSP,2013-10-24 17:27:00,
2013-10-24 12:37:00,45.1,36.9,30.51,South,180,0.0,6.2,73,0.00,,,0.00,WUHU21636XXSP,2013-10-24 17:37:00,
2013-10-24 12:47:00,45.3,37.0,30.51,South,180,0.0,7.3,73,0.00,,,0.00,WUHU21636XXSP,2013-10-24 17:47:00,
2013-10-24 12:57:00,45.5,37.2,30.51,South,180,0.0,0.4,73,0.00,,,0.00,WUHU21636XXSP,2013-10-24 17:57:00,
2013-10-24 13:07:00,45.7,37.4,30.50,SW,225,1.3,3.5,73,0.00,,,0.00,WUHU21636XXSP,2013-10-24 18:07:00,
2013-10-24 13:17:00,46.0,37.4,30.50,SSW,202,4.4,6.2,72,0.00,,,0.00,WUHU21636XXSP,2013-10-24 18:17:00,
2013-10-24 13:27:00,46.0,37.4,30.50,SSW,202,3.1,7.3,72,0.00,,,0.00,WUHU21636XXSP,2013-10-24 18:27:00,
2013-10-24 13:37:00,46.4,37.4,30.49,SSW,202,3.3,7.6,71,0.00,,,0.00,WUHU21636XXSP,2013-10-24 18:37:00,
2013-10-24 13:47:00,46.6,38.3,30.49,South,180,0.0,8.0,72,0.00,,,0.00,WUHU21636XXSP,2013-10-24 18:47:00,
2013-10-24 13:57:00,46.9,38.3,30.49,SSW,202,0.0,4.0,72,0.00,,,0.00,WUHU21636XXSP,2013-10-24 18:57:00,
2013-10-24 14:07:00,47.3,38.7,30.49,South,180,0.0,4.2,72,0.00,,,0.00,WUHU21636XXSP,2013-10-24 19:07:00,
2013-10-24 14:17:00,47.3,37.9,30.48,SW,225,0.0,2.9,70,0.00,,,0.00,WUHU21636XXSP,2013-10-24 19:17:00,
2013-10-24 14:27:00,47.5,37.8,30.47,SW,225,0.0,2.2,69,0.00,,,0.00,WUHU21636XXSP,2013-10-24 19:27:00,
2013-10-24 14:37:00,47.5,37.8,30.47,WSW,247,2.2,5.3,69,0.00,,,0.00,WUHU21636XXSP,2013-10-24 19:37:00,
2013-10-24 14:47:00,47.8,37.6,30.47,SW,225,0.0,2.2,69,0.00,,,0.00,WUHU21636XXSP,2013-10-24 19:47:00,
2013-10-24 14:57:00,48.0,37.8,30.46,SW,225,4.0,6.9,68,0.00,,,0.00,WUHU21636XXSP,2013-10-24 19:57:00,
2013-10-24 15:07:00,48.2,38.3,30.46,SSW,202,2.0,4.0,69,0.00,,,0.00,WUHU21636XXSP,2013-10-24 20:07:00,
2013-10-24 15:17:00,48.4,38.1,30.46,SW,225,1.1,2.0,67,0.00,,,0.00,WUHU21636XXSP,2013-10-24 20:17:00,
2013-10-24 15:27:00,48.6,38.3,30.46,South,180,0.4,1.1,68,0.00,,,0.00,WUHU21636XXSP,2013-10-24 20:27:00,
2013-10-24 15:37:00,48.6,37.9,30.46,SW,225,0.0,0.4,67,0.00,,,0.00,WUHU21636XXSP,2013-10-24 20:37:00,
2013-10-24 15:47:00,48.6,37.6,30.45,SW,225,4.0,4.0,66,0.00,,,0.00,WUHU21636XXSP,2013-10-24 20:47:00,
2013-10-24 15:57:00,48.6,37.9,30.45,SW,225,0.0,4.0,67,0.00,,,0.00,WUHU21636XXSP,2013-10-24 20:57:00,
2013-10-24 16:07:00,48.7,38.1,30.45,West,270,0.0,0.0,66,0.00,,,0.00,WUHU21636XXSP,2013-10-24 21:07:00,
2013-10-24 16:17:00,48.7,37.8,30.45,SW,225,3.8,7.8,67,0.00,,,0.00,WUHU21636XXSP,2013-10-24 21:17:00,
2013-10-24 16:27:00,48.7,37.8,30.44,SW,225,3.8,6.7,66,0.00,,,0.00,WUHU21636XXSP,2013-10-24 21:27:00,
2013-10-24 16:37:00,48.6,37.6,30.44,SW,225,0.0,3.8,67,0.00,,,0.00,WUHU21636XXSP,2013-10-24 21:37:00,
2013-10-24 16:47:00,48.6,37.6,30.44,SW,225,0.4,0.4,66,0.00,,,0.00,WUHU21636XXSP,2013-10-24 21:47:00,
2013-10-24 16:57:00,48.7,37.8,30.44,SW,225,2.6,6.2,66,0.00,,,0.00,WUHU21636XXSP,2013-10-24 21:57:00,
2013-10-24 17:07:00,48.7,38.1,30.44,SW,225,0.0,2.6,67,0.00,,,0.00,WUHU21636XXSP,2013-10-24 22:07:00,
2013-10-24 17:17:00,48.7,37.8,30.44,SW,225,1.5,4.0,66,0.00,,,0.00,WUHU21636XXSP,2013-10-24 22:17:00,
2013-10-24 17:27:00,48.4,37.4,30.44,SSW,202,4.9,5.1,66,0.00,,,0.00,WUHU21636XXSP,2013-10-24 22:27:00,
2013-10-24 17:37:00,48.7,38.1,30.44,South,180,0.4,4.9,67,0.00,,,0.00,WUHU21636XXSP,2013-10-24 22:37:00,
2013-10-24 17:47:00,48.6,37.6,30.44,SSW,202,0.0,2.0,66,0.00,,,0.00,WUHU21636XXSP,2013-10-24 22:47:00,
2013-10-24 17:57:00,48.4,37.4,30.44,SSW,202,0.6,3.5,66,0.00,,,0.00,WUHU21636XXSP,2013-10-24 22:57:00,
2013-10-24 18:07:00,48.4,37.4,30.44,SSW,202,3.1,6.9,66,0.00,,,0.00,WUHU21636XXSP,2013-10-24 23:07:00,
2013-10-24 18:17:00,48.4,37.4,30.44,SSW,202,0.0,4.0,66,0.00,,,0.00,WUHU21636XXSP,2013-10-24 23:17:00,
2013-10-24 18:27:00,48.4,37.4,30.44,SSW,202,0.0,0.0,67,0.00,,,0.00,WUHU21636XXSP,2013-10-24 23:27:00,
2013-10-24 18:38:00,48.0,37.4,30.44,SSW,202,0.0,4.0,67,0.00,,,0.00,WUHU21636XXSP,2013-10-24 23:38:00,
2013-10-24 18:48:00,48.2,37.6,30.44,SSW,202,0.0,0.0,67,0.00,,,0.00,WUHU21636XXSP,2013-10-24 23:48:00,
2013-10-24 18:58:00,48.0,37.4,30.45,SSW,202,0.0,0.0,67,0.00,,,0.00,WUHU21636XXSP,2013-10-24 23:58:00,
2013-10-24 19:08:00,48.0,37.4,30.45,SSW,202,0.0,0.0,67,0.00,,,0.00,WUHU21636XXSP,2013-10-25 00:08:00,
2013-10-24 19:18:00,48.0,37.4,30.44,SSE,157,0.0,1.3,67,0.00,,,0.00,WUHU21636XXSP,2013-10-25 00:18:00,
2013-10-24 19:28:00,47.8,37.2,30.45,SE,135,0.0,4.4,67,0.00,,,0.00,WUHU21636XXSP,2013-10-25 00:28:00,
2013-10-24 19:38:00,47.5,36.9,30.45,SSE,157,0.0,4.4,67,0.00,,,0.00,WUHU21636XXSP,2013-10-25 00:38:00,
2013-10-24 19:48:00,47.1,37.0,30.45,SSE,157,0.0,3.3,68,0.00,,,0.00,WUHU21636XXSP,2013-10-25 00:48:00,
2013-10-24 19:58:00,46.8,36.7,30.45,SSE,157,0.0,0.0,68,0.00,,,0.00,WUHU21636XXSP,2013-10-25 00:58:00,
2013-10-24 20:08:00,46.2,36.5,30.45,SSE,157,0.0,4.4,69,0.00,,,0.00,WUHU21636XXSP,2013-10-25 01:08:00,
2013-10-24 20:18:00,46.0,36.3,30.45,SSE,157,0.0,3.3,69,0.00,,,0.00,WUHU21636XXSP,2013-10-25 01:18:00,
2013-10-24 20:28:00,45.9,36.1,30.45,SE,135,0.0,0.0,69,0.00,,,0.00,WUHU21636XXSP,2013-10-25 01:28:00,
2013-10-24 20:38:00,45.7,36.5,30.45,SSE,157,1.7,2.9,70,0.00,,,0.00,WUHU21636XXSP,2013-10-25 01:38:00,
2013-10-24 20:48:00,45.3,36.1,30.45,SSE,157,0.0,3.3,70,0.00,,,0.00,WUHU21636XXSP,2013-10-25 01:48:00,
2013-10-24 20:58:00,45.3,36.1,30.46,SE,135,0.0,3.1,70,0.00,,,0.00,WUHU21636XXSP,2013-10-25 01:58:00,
2013-10-24 21:08:00,45.1,36.0,30.46,SSE,157,0.0,0.0,70,0.00,,,0.00,WUHU21636XXSP,2013-10-25 02:08:00,
2013-10-24 21:18:00,44.8,35.6,30.46,SSE,157,0.0,0.0,70,0.00,,,0.00,WUHU21636XXSP,2013-10-25 02:18:00,
2013-10-24 21:28:00,44.4,35.2,30.47,SSE,157,0.0,0.0,70,0.00,,,0.00,WUHU21636XXSP,2013-10-25 02:28:00,
2013-10-24 21:38:00,43.9,34.7,30.46,South,180,0.0,2.2,70,0.00,,,0.00,WUHU21636XXSP,2013-10-25 02:38:00,
2013-10-24 21:48:00,43.5,34.3,30.47,South,180,0.0,0.0,70,0.00,,,0.00,WUHU21636XXSP,2013-10-25 02:48:00,
2013-10-24 21:58:00,43.2,34.3,30.47,South,180,0.0,0.0,71,0.00,,,0.00,WUHU21636XXSP,2013-10-25 02:58:00,
2013-10-24 22:08:00,42.6,33.8,30.47,South,180,0.0,0.0,71,0.00,,,0.00,WUHU21636XXSP,2013-10-25 03:08:00,
2013-10-24 22:18:00,42.4,33.6,30.47,South,180,0.0,0.0,71,0.00,,,0.00,WUHU21636XXSP,2013-10-25 03:18:00,
2013-10-24 22:28:00,42.3,33.4,30.47,South,180,0.0,0.0,71,0.00,,,0.00,WUHU21636XXSP,2013-10-25 03:28:00,
2013-10-24 22:38:00,41.7,32.9,30.48,SSW,202,0.0,2.0,71,0.00,,,0.00,WUHU21636XXSP,2013-10-25 03:38:00,
2013-10-24 22:48:00,41.5,32.7,30.48,SSE,157,0.0,4.6,71,0.00,,,0.00,WUHU21636XXSP,2013-10-25 03:48:00,
2013-10-24 22:58:00,41.5,32.7,30.48,South,180,0.6,0.8,71,0.00,,,0.00,WUHU21636XXSP,2013-10-25 03:58:00,
2013-10-24 23:08:00,41.2,32.4,30.48,SSW,202,0.0,4.6,71,0.00,,,0.00,WUHU21636XXSP,2013-10-25 04:08:00,
2013-10-24 23:18:00,41.2,32.4,30.48,South,180,0.0,0.0,71,0.00,,,0.00,WUHU21636XXSP,2013-10-25 04:18:00,
2013-10-24 23:28:00,40.8,32.0,30.48,South,180,0.4,0.4,71,0.00,,,0.00,WUHU21636XXSP,2013-10-25 04:28:00,
2013-10-24 23:38:00,40.6,31.8,30.47,South,180,0.0,1.3,71,0.00,,,0.00,WUHU21636XXSP,2013-10-25 04:38:00,
2013-10-24 23:48:00,40.5,31.6,30.47,South,180,0.0,0.0,71,0.00,,,0.00,WUHU21636XXSP,2013-10-25 04:48:00,
2013-10-24 23:58:00,40.3,31.5,30.47,South,180,0.0,0.0,71,0.00,,,0.00,WUHU21636XXSP,2013-10-25 04:58:00,